Weather History for Poughkeepsie, NY

Change the Weather History Date:

Thursday, November 17, 2011

  Actual Average Record
Temperature  
Mean Temperature 45 °F 41 °F  
Max Temperature 53 °F 52 °F 69 °F (1953)
Min Temperature 36 °F 31 °F 14 °F (1980)
Degree Days  
Heating Degree Days 20 24  
Month to date heating degree days 302 362  
Since 1 July heating degree days 716 938  
Cooling Degree Days 0 0  
Month to date cooling degree days 0 0  
Year to date cooling degree days 908 672  
Moisture  
Dew Point 31 °F    
Average Humidity 61    
Maximum Humidity 93    
Minimum Humidity 38    
Precipitation  
Precipitation T in 0.12 in 1.88 in (2002)
Month to date precipitation 0.73 1.93  
Year to date precipitation 52.59 41.46  
Sea Level Pressure  
Sea Level Pressure 29.86 in    
Wind  
Wind Speed 6 mph (NW)    
Max Wind Speed 16 mph    
Max Gust Speed 22 mph    
Visibility 10 miles    
Events      
T = Trace of Precipitation, MM = Missing Value Source: NWS Daily Summary

Daily Weather History Graph

Daily Weather History Graph

Search for Another Location

Airport:

Trip Planner

Search our weather history database for the weather conditions in past years. The results will help you decide how hot, cold, wet, or windy it might be!

Date:

Astronomy

Nov. 17, 2011 Rise Set
Actual Time 6:46 AM EST 4:33 PM EST
Civil Twilight 6:16 AM EST 5:03 PM EST
Nautical Twilight 5:42 AM EST 5:37 PM EST
Astronomical Twilight 5:10 AM EST 6:10 PM EST
Moon 10:53 PM EST (11/17) 11:52 AM EST (11/17)
Length of Visible Light 10h 47m
Length of Day
9h 47m
Waning Gibbous, 60% of the Moon is Illuminated
Nov 17
Waning Gibbous
Nov 18
Last Quarter
Nov 25
New
Dec 2
First Quarter
Dec 10
Full

Hourly Weather History & Observations

Time (EST) Temp. Windchill Dew Point Humidity Pressure Visibility Wind Dir Wind Speed Gust Speed Precip Events Conditions
12:05 AM 53.6 °F - 51.8 °F 94% 29.76 in 6.0 mi NW 3.5 mph - N/A   Overcast
12:53 AM 52.0 °F - 48.9 °F 89% 29.77 in 10.0 mi North 5.8 mph - 0.00 in   Overcast
1:53 AM 50.0 °F - 43.0 °F 77% 29.79 in 10.0 mi North 3.5 mph - N/A   Overcast
2:53 AM 48.0 °F - 39.0 °F 71% 29.81 in 10.0 mi North 6.9 mph - N/A   Overcast
3:53 AM 46.9 °F - 39.0 °F 74% 29.83 in 10.0 mi Calm Calm - N/A   Overcast
4:53 AM 46.0 °F 43.9 °F 37.9 °F 73% 29.84 in 10.0 mi NW 4.6 mph - N/A   Overcast
5:53 AM 45.0 °F 40.1 °F 37.0 °F 74% 29.84 in 10.0 mi North 9.2 mph - N/A   Mostly Cloudy
6:53 AM 44.1 °F 40.8 °F 30.9 °F 60% 29.84 in 10.0 mi North 5.8 mph - N/A   Scattered Clouds
7:53 AM 44.1 °F 41.5 °F 30.9 °F 60% 29.86 in 10.0 mi North 4.6 mph - N/A   Overcast
8:53 AM 44.1 °F 40.8 °F 30.9 °F 60% 29.88 in 10.0 mi NNW 5.8 mph - N/A   Overcast
9:53 AM 44.6 °F 41.4 °F 30.2 °F 57% 29.90 in 10.0 mi North 5.8 mph - N/A   Overcast
10:53 AM 45.0 °F 42.6 °F 32.0 °F 60% 29.86 in 10.0 mi North 4.6 mph - N/A   Overcast
11:53 AM 44.6 °F 41.4 °F 32.0 °F 61% 29.84 in 10.0 mi North 5.8 mph - N/A   Overcast
12:53 PM 45.0 °F 42.6 °F 30.9 °F 58% 29.83 in 10.0 mi North 4.6 mph - N/A   Overcast
1:53 PM 45.0 °F 43.5 °F 30.9 °F 58% 29.81 in 10.0 mi NNW 3.5 mph - N/A   Overcast
2:53 PM 44.6 °F 40.7 °F 26.6 °F 49% 29.82 in 10.0 mi NNW 6.9 mph - N/A   Overcast
3:53 PM 44.1 °F 42.5 °F 28.0 °F 53% 29.81 in 10.0 mi NW 3.5 mph - N/A   Mostly Cloudy
4:53 PM 43.0 °F 41.3 °F 28.0 °F 56% 29.82 in 10.0 mi West 3.5 mph - N/A   Overcast
5:53 PM 43.0 °F 37.7 °F 25.0 °F 49% 29.86 in 10.0 mi West 9.2 mph - N/A   Overcast
6:53 PM 42.1 °F 36.6 °F 23.0 °F 47% 29.90 in 10.0 mi WNW 9.2 mph - N/A   Overcast
7:53 PM 41.0 °F 34.7 °F 18.0 °F 40% 29.93 in 10.0 mi West 10.4 mph - N/A   Mostly Cloudy
8:53 PM 39.0 °F 33.4 °F 19.9 °F 46% 29.96 in 10.0 mi West 8.1 mph - N/A   Partly Cloudy
9:53 PM 37.0 °F 32.4 °F 19.9 °F 50% 29.97 in 10.0 mi WSW 5.8 mph - N/A   Clear
10:53 PM 37.0 °F 31.0 °F 21.9 °F 54% 29.98 in 10.0 mi West 8.1 mph - N/A   Clear
11:53 PM 37.0 °F 29.3 °F 21.9 °F 54% 30.00 in 10.0 mi West 11.5 mph - N/A   Clear